EW1806 Kalamata GR current weather conditions

sailwx.info

Wind from 074

Air temperature 18.3° C
Dewpoint 12.3° C

Last reported at 2019-Dec-06 14:05 UTC.
Time now 2019-Dec-06 15:38 UTC

Location: N 37°02' E 022°07'.
View on Google Maps.

See reports from other nearby stations

  
Tides and Currents Weather Stations Pressure Air Temp Water Temp Dewpoint Dewpoint Depression Visibility Wind Speed Wind Dir Waves Ship Positions
date/time (UTC)wind fromknots sea level pressurealtimeterstation pressurevisibilityair tempwater tempwave heightnotes
2019-Dec-06 14:05 074 18.3
2019-Dec-06 14:00 074 18.3
2019-Dec-06 13:55 074 18.9
2019-Dec-06 13:50 079 18.3
2019-Dec-06 13:45 079 18.3
2019-Dec-06 13:40 078 18.3
2019-Dec-06 13:35 085 18.3
2019-Dec-06 13:30 086 18.3
2019-Dec-06 13:25 105 18.3
2019-Dec-06 13:20 107 18.3
2019-Dec-06 13:15 111 18.3
2019-Dec-06 13:10 113 18.3
2019-Dec-06 13:05 113 18.3
2019-Dec-06 13:00 113 18.3
2019-Dec-06 12:55 113 18.3
2019-Dec-06 12:50 113 17.8
2019-Dec-06 12:45 113 17.8
2019-Dec-06 12:40 111 17.8
2019-Dec-06 12:35 111 17.8
2019-Dec-06 12:30 110 17.8
2019-Dec-06 12:25 111 17.8
2019-Dec-06 12:20 111 18.3
2019-Dec-06 12:15 118 18.3
2019-Dec-06 12:10 135 18.3
2019-Dec-06 12:05 136 18.3
2019-Dec-06 12:00 096 18.3
2019-Dec-06 11:55 133 18.3
2019-Dec-06 11:50 132 17.8
2019-Dec-06 11:45 132 18.3
2019-Dec-06 11:40 132 17.8
2019-Dec-06 11:35 133 17.8
2019-Dec-06 11:30 133 17.8
2019-Dec-06 11:25 134 17.8
2019-Dec-06 11:20 134 17.8
2019-Dec-06 11:15 134 17.8
2019-Dec-06 11:10 134 17.8
2019-Dec-06 11:05 133 17.8
2019-Dec-06 11:00 138 17.8
2019-Dec-06 10:55 140 17.8
2019-Dec-06 10:50 137 17.8
2019-Dec-06 10:45 155 17.8
2019-Dec-06 10:40 136 17.8
2019-Dec-06 10:35 139 1 gusting 7 17.8
2019-Dec-06 10:30 142 3 gusting 7 18.3
2019-Dec-06 10:25 154 1 gusting 6 18.3
2019-Dec-06 10:20 137 2 gusting 6 18.3
2019-Dec-06 10:15 173 18.3
2019-Dec-06 10:10 141 18.9
2019-Dec-06 10:05 140 18.3
2019-Dec-06 10:00 142 18.3
2019-Dec-06 09:55 111 18.3
2019-Dec-06 09:50 101 18.3
2019-Dec-06 09:45 132 18.3
2019-Dec-06 09:40 126 18.3
2019-Dec-06 09:35 121 18.3
2019-Dec-06 09:30 119 18.3
2019-Dec-06 09:25 134 18.3
2019-Dec-06 09:20 140 18.3
2019-Dec-06 09:15 140 17.8
2019-Dec-06 09:10 140 17.2
2019-Dec-06 09:05 140 17.2
2019-Dec-06 09:00 140 16.7
2019-Dec-06 08:55 140 16.7
2019-Dec-06 08:50 117 16.7
2019-Dec-06 08:45 117 16.7
2019-Dec-06 08:40 117 16.7
2019-Dec-06 08:35 117 16.7
2019-Dec-06 08:30 117 16.7
2019-Dec-06 08:25 117 16.7
2019-Dec-06 08:20 117 16.7
2019-Dec-06 08:15 115 16.7
2019-Dec-06 08:10 116 16.7
2019-Dec-06 08:05 117 16.7
2019-Dec-06 08:00 124 16.7
2019-Dec-06 07:55 123 16.1
2019-Dec-06 07:50 123 16.1
2019-Dec-06 07:45 123 16.1
2019-Dec-06 07:40 121 16.7
2019-Dec-06 07:35 273 16.7
2019-Dec-06 07:30 278 16.7
2019-Dec-06 07:25 282 16.7
2019-Dec-06 07:20 282 16.7
2019-Dec-06 07:15 282 16.1
2019-Dec-06 07:10 281 16.1
2019-Dec-06 07:05 281 16.1
2019-Dec-06 07:00 279 16.1
2019-Dec-06 06:55 279 15.6
2019-Dec-06 06:50 279 15.6
2019-Dec-06 06:45 279 15.6
2019-Dec-06 06:40 279 15.0
2019-Dec-06 06:35 279 14.4
2019-Dec-06 06:30 279 14.4
2019-Dec-06 06:25 279 13.9
2019-Dec-06 06:20 279 13.9
2019-Dec-06 06:15 279 13.9
2019-Dec-06 06:10 279 13.9
2019-Dec-06 06:05 279 13.9
2019-Dec-06 06:00 279 13.9
2019-Dec-06 05:55 279 13.9
2019-Dec-06 05:50 279 13.9
2019-Dec-06 05:45 278 13.3
2019-Dec-06 05:40 278 13.9
2019-Dec-06 05:35 279 13.9
2019-Dec-06 05:30 279 13.9
2019-Dec-06 05:25 279 13.9
2019-Dec-06 05:20 279 13.9
2019-Dec-06 05:15 279 13.9
2019-Dec-06 05:10 279 13.9
2019-Dec-06 05:05 279 13.9
2019-Dec-06 05:00 279 13.9
2019-Dec-06 04:55 279 13.9
2019-Dec-06 04:50 279 13.9
2019-Dec-06 04:45 279 13.9
2019-Dec-06 04:40 279 13.9
2019-Dec-06 04:35 279 13.9
2019-Dec-06 04:30 279 13.9
2019-Dec-06 04:25 279 13.3
2019-Dec-06 04:20 278 13.3
2019-Dec-06 04:15 277 13.3
2019-Dec-06 04:10 278 13.3
2019-Dec-06 04:05 277 13.3
2019-Dec-06 04:00 277 13.3
2019-Dec-06 03:55 277 13.9
2019-Dec-06 03:50 278 13.9
2019-Dec-06 03:45 278 13.9
2019-Dec-06 03:40 278 13.9
2019-Dec-06 03:35 278 13.9
2019-Dec-06 03:30 277 13.3
2019-Dec-06 03:25 278 13.3
2019-Dec-06 03:20 278 13.3
2019-Dec-06 03:15 277 13.3
2019-Dec-06 03:10 278 13.3
2019-Dec-06 03:05 277 12.8
2019-Dec-06 03:00 277 12.8
2019-Dec-06 02:55 277 13.3
2019-Dec-06 02:50 277 13.3
2019-Dec-06 02:45 277 13.3
2019-Dec-06 02:40 278 13.3
2019-Dec-06 02:35 277 13.3
2019-Dec-06 02:30 278 13.3
2019-Dec-06 02:25 278 13.3
2019-Dec-06 02:20 278 13.3
2019-Dec-06 02:15 278 13.3
2019-Dec-06 02:10 278 13.3
2019-Dec-06 02:05 277 13.3
2019-Dec-06 02:00 277 13.3
2019-Dec-06 01:55 277 13.3
2019-Dec-06 01:50 277 13.9
2019-Dec-06 01:45 277 13.9
2019-Dec-06 01:40 278 13.9
2019-Dec-06 01:35 278 13.9
2019-Dec-06 01:30 278 13.9
2019-Dec-06 01:25 278 13.9
2019-Dec-06 01:20 278 13.9
2019-Dec-06 01:15 278 13.9
2019-Dec-06 01:10 278 13.3
2019-Dec-06 01:05 278 13.3
2019-Dec-06 01:00 277 13.3
2019-Dec-06 00:55 277 13.3
2019-Dec-06 00:50 277 12.8
2019-Dec-06 00:45 278 12.8
2019-Dec-06 00:40 277 12.8
2019-Dec-06 00:35 277 12.8
2019-Dec-06 00:30 277 12.8
2019-Dec-06 00:25 307 12.8
2019-Dec-06 00:20 307 12.8
2019-Dec-06 00:15 307 12.8
2019-Dec-06 00:10 321 12.8
2019-Dec-06 00:05 275 12.8
2019-Dec-06 00:00 287 13.3
2019-Dec-05 23:55 286 13.3
2019-Dec-05 23:50 280 13.3
2019-Dec-05 23:45 274 0 gusting 2 13.3
2019-Dec-05 23:40 257 13.3
2019-Dec-05 23:35 291 13.3
2019-Dec-05 23:30 355 13.3
2019-Dec-05 23:25 360 13.3
2019-Dec-05 23:20 355 13.3
2019-Dec-05 23:15 028 13.3
2019-Dec-05 23:10 355 1 gusting 6 13.3
2019-Dec-05 23:05 360 0 gusting 4 13.3
2019-Dec-05 23:00 039 13.3
2019-Dec-05 22:55 005 13.3
2019-Dec-05 22:50 052 13.3
2019-Dec-05 22:45 052 13.3
2019-Dec-05 22:40 051 13.3
2019-Dec-05 22:35 360 13.3
2019-Dec-05 22:30 350 13.3
2019-Dec-05 22:25 304 13.3
2019-Dec-05 22:20 304 13.3
2019-Dec-05 22:15 304 13.3
2019-Dec-05 22:10 304 12.8
2019-Dec-05 22:05 304 12.8
2019-Dec-05 22:00 252 12.8
2019-Dec-05 21:55 252 12.8
2019-Dec-05 21:50 252 12.8
2019-Dec-05 21:45 252 12.8
2019-Dec-05 21:40 252 12.8
2019-Dec-05 21:35 252 13.3
2019-Dec-05 21:30 274 13.3
2019-Dec-05 21:25 274 13.3
2019-Dec-05 21:20 274 13.3
2019-Dec-05 21:15 274 12.8
2019-Dec-05 21:10 274 12.8
2019-Dec-05 21:05 274 12.8
2019-Dec-05 21:00 274 12.8
2019-Dec-05 20:55 273 12.8
2019-Dec-05 20:50 286 13.3
2019-Dec-05 20:45 287 13.3
2019-Dec-05 20:40 289 13.9
2019-Dec-05 20:35 289 13.9
2019-Dec-05 20:30 304 13.9
2019-Dec-05 20:26 304 13.9
2019-Dec-05 20:20 304 13.9
2019-Dec-05 20:15 304 13.9
2019-Dec-05 20:10 304 13.3
2019-Dec-05 20:05 304 13.3
2019-Dec-05 20:00 304 13.3
2019-Dec-05 19:55 304 13.3
2019-Dec-05 19:50 316 13.9
2019-Dec-05 19:45 259 13.9
2019-Dec-05 19:40 251 13.9
2019-Dec-05 19:35 250 13.9
2019-Dec-05 19:30 260 13.9
2019-Dec-05 19:25 273 14.4
2019-Dec-05 19:20 273 14.4
2019-Dec-05 19:15 273 14.4
2019-Dec-05 19:10 274 14.4
2019-Dec-05 19:05 274 14.4
2019-Dec-05 19:00 274 14.4
2019-Dec-05 18:55 274 14.4
2019-Dec-05 18:50 273 14.4
2019-Dec-05 18:45 288 14.4
2019-Dec-05 18:40 288 14.4
2019-Dec-05 18:35 288 14.4
2019-Dec-05 18:30 288 13.9
2019-Dec-05 18:25 288 13.9
2019-Dec-05 18:20 270 13.9
2019-Dec-05 18:15 266 14.4
2019-Dec-05 18:10 266 14.4
2019-Dec-05 18:05 266 14.4
2019-Dec-05 18:00 266 14.4
2019-Dec-05 17:55 274 14.4
2019-Dec-05 17:50 274 14.4
2019-Dec-05 17:45 274 14.4
2019-Dec-05 17:40 274 14.4
2019-Dec-05 17:35 274 15.0
2019-Dec-05 17:30 274 15.0
2019-Dec-05 17:25 274 15.0
2019-Dec-05 17:20 274 15.0
2019-Dec-05 17:15 274 15.0
2019-Dec-05 17:10 274 15.0
2019-Dec-05 17:05 274 15.0
2019-Dec-05 17:00 274 15.0
2019-Dec-05 16:55 274 15.0
2019-Dec-05 16:50 274 14.4
2019-Dec-05 16:45 274 14.4
2019-Dec-05 16:40 274 14.4
2019-Dec-05 16:35 273 14.4
2019-Dec-05 16:30 279 14.4
2019-Dec-05 16:25 278 14.4
2019-Dec-05 16:20 272 15.0
2019-Dec-05 16:15 272 15.0
2019-Dec-05 16:10 269 15.0
2019-Dec-05 16:05 233 15.0
2019-Dec-05 16:00 254 15.6
2019-Dec-05 15:55 281 15.6
2019-Dec-05 15:50 281 15.6
2019-Dec-05 15:45 281 15.6
2019-Dec-05 15:40 281 15.6
2019-Dec-05 15:35 281 15.6
2019-Dec-05 15:30 286 15.6
2019-Dec-05 15:25 254 15.6
2019-Dec-05 15:20 254 15.6
2019-Dec-05 15:15 247 15.6
2019-Dec-05 15:10 247 16.1
2019-Dec-05 15:05 246 16.1
2019-Dec-05 15:00 246 16.1
2019-Dec-05 14:55 246 16.1
2019-Dec-05 14:50 246 16.1
2019-Dec-05 14:45 246 16.1
2019-Dec-05 14:40 246 16.1
2019-Dec-05 14:35 245 16.7
2019-Dec-05 14:30 246 16.7
2019-Dec-05 14:25 165 17.2
2019-Dec-05 14:20 165 16.7
2019-Dec-05 14:15 213 16.7
2019-Dec-05 14:10 213 16.7
2019-Dec-05 14:05 213 16.7
2019-Dec-05 14:00 213 16.7
2019-Dec-05 13:55 213 16.7
2019-Dec-05 13:50 213 16.7
2019-Dec-05 13:45 213 16.7
2019-Dec-05 13:40 213 17.2
2019-Dec-05 13:35 153 17.2
2019-Dec-05 13:30 094 17.2
2019-Dec-05 13:25 094 17.8
2019-Dec-05 13:20 094 17.8
2019-Dec-05 13:15 093 17.8
2019-Dec-05 13:10 092 17.8
2019-Dec-05 13:05 092 17.8
2019-Dec-05 13:00 087 17.8
2019-Dec-05 12:55 087 17.8
2019-Dec-05 12:50 105 18.3
2019-Dec-05 12:45 106 17.8
2019-Dec-05 12:40 106 17.8
2019-Dec-05 12:35 105 17.8
2019-Dec-05 12:30 107 17.8
2019-Dec-05 12:25 104 17.8
2019-Dec-05 12:20 098 17.2
2019-Dec-05 12:15 098 17.8
2019-Dec-05 12:10 097 17.8
2019-Dec-05 12:05 120 17.8
2019-Dec-05 12:00 143 17.8
2019-Dec-05 11:55 155 17.8
2019-Dec-05 11:50 103 17.8
2019-Dec-05 11:45 103 18.3
2019-Dec-05 11:40 102 17.8
2019-Dec-05 11:35 102 17.8
2019-Dec-05 11:30 126 17.2
2019-Dec-05 11:25 182 17.2
2019-Dec-05 11:20 180 17.2
2019-Dec-05 11:15 178 17.2
2019-Dec-05 11:10 178 17.8
2019-Dec-05 11:05 178 17.2
2019-Dec-05 11:00 275 17.2
2019-Dec-05 10:55 275 16.7
2019-Dec-05 10:50 275 16.1
2019-Dec-05 10:45 275 16.1
2019-Dec-05 10:40 275 16.7
2019-Dec-05 10:35 275 16.7
2019-Dec-05 10:30 275 16.1
2019-Dec-05 10:25 236 16.1
2019-Dec-05 10:20 265 16.1
2019-Dec-05 10:15 267 16.1
2019-Dec-05 10:10 267 16.1
2019-Dec-05 10:05 261 16.1
2019-Dec-05 10:00 261 16.1
2019-Dec-05 09:55 255 16.1
2019-Dec-05 09:50 267 16.1
2019-Dec-05 09:45 268 16.1
2019-Dec-05 09:40 270 16.1
2019-Dec-05 09:35 277 16.1
2019-Dec-05 09:30 068 16.1
2019-Dec-05 09:25 073 16.1
2019-Dec-05 09:20 073 16.1
2019-Dec-05 09:15 057 16.1
2019-Dec-05 09:10 057 16.1
2019-Dec-05 09:05 057 16.1
2019-Dec-05 09:00 057 16.1
2019-Dec-05 08:55 065 16.1
2019-Dec-05 08:50 047 16.1
2019-Dec-05 08:45 047 16.1
2019-Dec-05 08:40 040 16.1
2019-Dec-05 08:35 039 16.1
2019-Dec-05 08:30 039 16.1
2019-Dec-05 08:25 298 16.1
2019-Dec-05 08:20 298 15.6
2019-Dec-05 08:15 298 15.6
2019-Dec-05 08:10 298 15.6
2019-Dec-05 08:05 298 15.0
2019-Dec-05 08:00 298 14.4
2019-Dec-05 07:55 298 14.4
2019-Dec-05 07:50 299 14.4
2019-Dec-05 07:45 274 14.4
2019-Dec-05 07:40 269 0 gusting 5 14.4
2019-Dec-05 07:35 254 15.0
2019-Dec-05 07:30 312 15.0
2019-Dec-05 07:25 312 14.4
2019-Dec-05 07:20 312 14.4
2019-Dec-05 07:15 312 14.4
2019-Dec-05 07:11 245 15.0
2019-Dec-05 07:05 243 15.6
2019-Dec-05 07:00 042 15.6
2019-Dec-05 06:55 041 15.6
2019-Dec-05 06:50 040 15.6
2019-Dec-05 06:45 040 15.6
2019-Dec-05 06:40 040 15.6
2019-Dec-05 06:35 040 15.0
2019-Dec-05 06:30 040 15.0
2019-Dec-05 06:25 040 15.0
2019-Dec-05 06:20 040 14.4
2019-Dec-05 06:15 039 14.4
2019-Dec-05 06:10 005 14.4
2019-Dec-05 06:05 005 14.4
2019-Dec-05 06:00 305 14.4
2019-Dec-05 05:55 305 14.4
2019-Dec-05 05:50 314 14.4
2019-Dec-05 05:45 040 15.0
2019-Dec-05 05:40 063 15.0
2019-Dec-05 05:35 063 15.0
2019-Dec-05 05:30 056 1 gusting 6 14.4
2019-Dec-05 05:25 069 14.4
2019-Dec-05 05:20 069 14.4
2019-Dec-05 05:15 068 14.4
2019-Dec-05 05:10 068 15.0
2019-Dec-05 05:05 069 15.0
2019-Dec-05 05:00 069 15.0
2019-Dec-05 04:55 069 15.0
2019-Dec-05 04:50 035 0 gusting 6 14.4
2019-Dec-05 04:45 355 14.4
2019-Dec-05 04:40 036 14.4
2019-Dec-05 04:35 035 14.4
2019-Dec-05 04:30 035 14.4
2019-Dec-05 04:25 035 14.4
2019-Dec-05 04:20 034 14.4
2019-Dec-05 04:15 034 15.0
2019-Dec-05 04:10 033 15.0
2019-Dec-05 04:05 033 15.0
2019-Dec-05 04:00 033 15.6
2019-Dec-05 03:55 341 0 gusting 7 15.6
2019-Dec-05 03:50 011 0 gusting 7 15.0
2019-Dec-05 03:45 059 15.0
2019-Dec-05 03:40 360 15.0
2019-Dec-05 03:35 318 14.4
2019-Dec-05 03:30 213 14.4
2019-Dec-05 03:25 213 14.4
2019-Dec-05 03:20 213 13.9
2019-Dec-05 03:15 213 13.9
2019-Dec-05 03:10 213 13.9
2019-Dec-05 03:05 213 13.9
2019-Dec-05 03:00 245 14.4
2019-Dec-05 02:55 271 15.6
2019-Dec-05 02:50 327 1 gusting 10 15.6
2019-Dec-05 02:45 331 1 gusting 10 15.6
2019-Dec-05 02:40 283 2 gusting 7 15.6
2019-Dec-05 02:35 304 1 gusting 13 15.6
2019-Dec-05 02:30 336 4 gusting 13 15.6
2019-Dec-05 02:25 031 2 gusting 11 15.6
2019-Dec-05 02:20 338 2 gusting 11 15.6
2019-Dec-05 02:15 333 1 gusting 13 15.6
2019-Dec-05 02:10 005 5 gusting 13 15.6
2019-Dec-05 02:05 360 5 gusting 9 15.6
2019-Dec-05 02:00 360 3 gusting 11 15.6
2019-Dec-05 01:55 355 4 gusting 11 15.6
2019-Dec-05 01:50 360 1 gusting 10 15.6
2019-Dec-05 01:45 024 1 gusting 11 15.6
2019-Dec-05 01:40 009 3 gusting 11 15.6
2019-Dec-05 01:35 275 3 gusting 11 15.6
2019-Dec-05 01:30 015 4 gusting 11 15.6
2019-Dec-05 01:25 021 3 gusting 11 15.6
2019-Dec-05 01:20 005 5 gusting 11 15.6
2019-Dec-05 01:15 036 4 gusting 10 15.6
2019-Dec-05 01:10 036 4 gusting 10 15.6
2019-Dec-05 01:05 360 3 gusting 10 15.6
2019-Dec-05 01:00 005 1 gusting 11 15.6
2019-Dec-05 00:55 045 3 gusting 14 15.6
2019-Dec-05 00:50 360 0 gusting 13 15.6
2019-Dec-05 00:45 302 4 gusting 13 15.6
2019-Dec-05 00:40 011 4 gusting 12 15.6
2019-Dec-05 00:35 005 6 gusting 11 15.6
2019-Dec-05 00:30 029 6 gusting 11 15.6
2019-Dec-05 00:25 041 1 gusting 12 15.6
2019-Dec-05 00:20 032 6 gusting 13 15.6
2019-Dec-05 00:15 067 6 gusting 13 15.6
2019-Dec-05 00:10 065 3 gusting 13 15.6
2019-Dec-05 00:05 010 7 gusting 14 15.6
2019-Dec-05 00:00 360 5 gusting 14 15.6
2019-Dec-04 23:55 044 6 gusting 14 15.6
2019-Dec-04 23:50 342 6 gusting 14 15.6
2019-Dec-04 23:45 340 6 gusting 15 15.6
2019-Dec-04 23:40 355 7 gusting 14 15.6
2019-Dec-04 23:35 355 5 gusting 14 15.6
2019-Dec-04 23:30 009 5 gusting 15 15.6
2019-Dec-04 23:25 344 1 gusting 14 15.6
2019-Dec-04 23:20 005 6 gusting 14 15.6
2019-Dec-04 23:15 360 6 gusting 14 15.6
2019-Dec-04 23:10 344 4 gusting 13 15.6
2019-Dec-04 23:05 017 6 gusting 11 15.6
2019-Dec-04 23:00 053 3 gusting 11 15.6
2019-Dec-04 22:55 048 0 gusting 13 15.6
2019-Dec-04 22:50 028 2 gusting 13 15.6
2019-Dec-04 22:45 016 6 gusting 13 15.6
2019-Dec-04 22:40 034 5 gusting 16 15.6
2019-Dec-04 22:35 005 5 gusting 16 15.6
2019-Dec-04 22:30 021 4 gusting 14 15.6
2019-Dec-04 22:25 287 6 gusting 12 15.6
2019-Dec-04 22:20 339 6 gusting 15 15.6
2019-Dec-04 22:15 355 5 gusting 15 15.6
2019-Dec-04 22:10 351 5 gusting 16 15.6
2019-Dec-04 22:05 028 7 gusting 16 15.6
2019-Dec-04 22:00 036 6 gusting 13 16.1
2019-Dec-04 21:55 039 5 gusting 14 16.1
2019-Dec-04 21:50 013 6 gusting 14 16.1
2019-Dec-04 21:45 018 5 gusting 11 15.6
2019-Dec-04 21:40 032 4 gusting 10 15.6
2019-Dec-04 21:35 020 4 gusting 12 15.6
2019-Dec-04 21:30 318 4 gusting 13 15.6
2019-Dec-04 21:25 328 6 gusting 13 16.1
2019-Dec-04 21:20 355 2 gusting 13 16.1
2019-Dec-04 21:15 048 5 gusting 14 16.1
2019-Dec-04 21:10 046 1 gusting 14 16.1
2019-Dec-04 21:05 044 6 gusting 12 16.1
2019-Dec-04 21:00 009 4 gusting 13 16.1
2019-Dec-04 20:55 005 6 gusting 10 16.1
2019-Dec-04 20:50 360 1 gusting 10 16.1
2019-Dec-04 20:45 017 4 gusting 13 16.1
2019-Dec-04 20:40 009 6 gusting 13 15.6
2019-Dec-04 20:35 049 5 gusting 13 15.6
2019-Dec-04 20:30 005 4 gusting 13 15.6
2019-Dec-04 20:25 355 4 gusting 13 15.6
2019-Dec-04 20:20 064 2 gusting 13 15.6
2019-Dec-04 20:15 043 3 gusting 15 15.6
2019-Dec-04 20:10 035 5 gusting 14 15.6
2019-Dec-04 20:05 360 6 gusting 14 15.6
2019-Dec-04 20:00 348 5 gusting 12 15.6
2019-Dec-04 19:55 038 6 gusting 12 15.6
2019-Dec-04 19:50 360 5 gusting 13 15.6
2019-Dec-04 19:45 005 7 gusting 14 15.6
2019-Dec-04 19:40 082 6 gusting 14 15.6
2019-Dec-04 19:35 011 6 gusting 14 15.6
2019-Dec-04 19:30 021 6 gusting 14 15.6
2019-Dec-04 19:25 059 5 gusting 15 15.6
2019-Dec-04 19:20 360 6 gusting 15 15.6
2019-Dec-04 19:15 050 6 gusting 16 15.6
2019-Dec-04 19:10 024 6 gusting 18 15.6
2019-Dec-04 19:05 360 7 gusting 18 15.6
2019-Dec-04 19:00 022 6 gusting 17 16.1
2019-Dec-04 18:55 360 6 gusting 14 16.1
2019-Dec-04 18:50 005 6 gusting 13 15.6
2019-Dec-04 18:45 360 6 gusting 15 15.6
2019-Dec-04 18:40 325 6 gusting 17 15.6
2019-Dec-04 18:35 005 7 gusting 17 15.6
2019-Dec-04 18:30 024 7 gusting 16 16.1
2019-Dec-04 18:25 348 8 gusting 16 16.1
2019-Dec-04 18:20 360 4 gusting 16 16.1
2019-Dec-04 18:15 045 6 gusting 15 16.1
2019-Dec-04 18:10 335 6 gusting 13 16.1
2019-Dec-04 18:05 037 7 gusting 13 16.1
2019-Dec-04 18:00 346 6 gusting 13 16.1
2019-Dec-04 17:55 360 6 gusting 13 16.1
2019-Dec-04 17:50 018 4 gusting 15 16.1
2019-Dec-04 17:45 005 6 gusting 15 15.6
2019-Dec-04 17:40 011 4 gusting 13 15.6
2019-Dec-04 17:35 035 3 gusting 14 15.6
2019-Dec-04 17:30 319 2 gusting 14 15.6
2019-Dec-04 17:25 313 1 gusting 10 15.0
2019-Dec-04 17:20 016 2 gusting 10 15.0
2019-Dec-04 17:15 013 4 gusting 10 15.0
2019-Dec-04 17:10 046 15.0
2019-Dec-04 17:05 045 15.0
2019-Dec-04 17:00 039 15.0
2019-Dec-04 16:55 300 14.4
2019-Dec-04 16:50 300 15.0
2019-Dec-04 16:40 300 14.4
2019-Dec-04 16:35 300 14.4
2019-Dec-04 16:30 299 14.4
2019-Dec-04 16:25 340 14.4
2019-Dec-04 16:20 360 13.9
2019-Dec-04 16:15 005 13.9
2019-Dec-04 16:10 316 13.9
2019-Dec-04 16:05 331 0 gusting 6 14.4
2019-Dec-04 16:00 291 0 gusting 9 14.4
2019-Dec-04 15:55 246 1 gusting 9 14.4
2019-Dec-04 15:50 218 3 gusting 6 14.4
2019-Dec-04 15:45 270 0 gusting 6 15.0
2019-Dec-04 15:40 298 1 gusting 9 15.0
2019-Dec-04 15:35 278 2 gusting 9 15.0
2019-Dec-04 15:30 304 4 gusting 9 15.0
2019-Dec-04 15:25 273 5 gusting 9 15.6
2019-Dec-04 15:20 270 2 gusting 9 16.1
2019-Dec-04 15:15 229 1 gusting 6 17.2
2019-Dec-04 15:10 296 17.2
2019-Dec-04 15:05 300 17.2
2019-Dec-04 15:00 244 17.8